sat.trackr.live / text

‹ back to catalog

STARLINK-1452

NORAD 45669 · 2020-035N

PAYLOAD ACTIVE UNKNOWN

§ Identity

Operator
Country
US
Launch date
2020-06-04
Launch site
AFETR
Launch vehicle
Mass (kg)
RCS (m²)

Purposes: comms

External: N2YO · Heavens-Above · Gunter

§ Orbital elements

Epoch: 2026-05-25T01:18:15.922080Z

Period
92.54 min
Inclination
53.0269°
Eccentricity
0.0000847
Mean motion
15.56039096 rev/d
Perigee alt
398.6 km
Apogee alt
399.7 km
Semi-major
6,777.3 km
B*
1.0970e-3
RAAN
14.7396°
Arg perigee
227.6379°
Mean anomaly
132.4559°
Rev number
33,121

§ Raw data

STARLINK-14521 45669U 20035N   26145.05435095  .00078076  00000+0  10970-2 0  99952 45669  53.0269  14.7396 0000847 227.6379 132.4559 15.56039096331215

JSON: /api/v1/satellites/45669 · /tle

For live sub-satellite position, see the globe view (requires WebGL).

§ Visibility from observer

Set your observer location to see the next 7 days of passes ≥ 10°. The values pass through the URL so the page stays shareable.

No JS? Fill the form by hand. The geolocation button needs JavaScript.